User: anonymous   Login
Location: Unspecified
(0.0000°N, 0.0000°E)
Time: 00:15:11
(UTC+00:00)
Language:

CSTB 1 - Orbit

View from above orbital plane
View from above orbital plane
View from above satellite
View from above satellite

Ground track
Ground track

The orbit data is extracted from the following two-line orbital elements,

1 31122U 07012F   17326.44969428 +.00000434 +00000-0 +95323-4 0  9991
2 31122 098.0437 280.7320 0078640 353.1160 006.8953 14.60620414563832
Epoch (UTC): 22 November 2017 10:47:33
Eccentricity: 0.0078640
inclination: 98.0437°
perigee height: 635 km
apogee height: 747 km
right ascension of ascending node: 280.7320°
argument of perigee: 353.1160°
revolutions per day: 14.60620414
mean anomaly at epoch: 6.8953°
orbit number at epoch: 56383

The dashed part of the orbit path shows where the satellite is in the earth's shadow,  

DLR